User: anonymous   Login
Location: Unspecified
(0.0000°N, 0.0000°E)
Time: 07:37:48
(UTC+00:00)
Language:

TATIANA - Orbit

View from above orbital plane
View from above orbital plane
View from above satellite
View from above satellite

Ground track
Ground track

The orbit data is extracted from the following two-line orbital elements,

1 28523U 05002C   17290.02439001  .00000064  00000-0  40421-4 0  9990
2 28523  82.9463 278.4950 0038136   2.7038 357.4324 13.87439311645036
Epoch (UTC): 17 October 2017 00:35:07
Eccentricity: 0.0038136
inclination: 82.9463°
perigee height: 910 km
apogee height: 965 km
right ascension of ascending node: 278.4950°
argument of perigee: 2.7038°
revolutions per day: 13.87439311
mean anomaly at epoch: 357.4324°
orbit number at epoch: 64503

The dashed part of the orbit path shows where the satellite is in the earth's shadow,  

DLR